Simultaneous Nadir Overpasses (SNOs) Predictions

Prediction of SNOs over PacNW region [( 10.00, 139.50) to ( 22.70, 165.60)] between AQUA and NPP Satellites:

Table of predicted SNOs over PacNW region for the next 30.0 days since TLE Epoch: 7/27/2019
Index Date (AQUA) Time (AQUA) AQUA Lat,Lon Date (NPP) Time (NPP) NPP Lat,Lon Distance(km) Time Diff (sec)
1 08/02/2019 15:09:45 22.63, 159.86 08/02/2019 15:11:23 23.21, 157.20 280.01 98
2 08/05/2019 03:31:35 22.67, 147.54 08/05/2019 03:28:06 24.22, 145.32 284.95 209
3 08/10/2019 15:59:11 22.62, 147.50 08/10/2019 16:02:09 23.27, 144.53 312.53 178
4 08/18/2019 15:09:42 22.62, 159.86 08/18/2019 15:11:26 23.21, 157.20 280.22 104
5 08/21/2019 03:31:31 22.65, 147.55 08/21/2019 03:28:02 23.83, 145.43 253.45 209




NCC Satellite Simultaneous Nadir Overpasses (SNOs) Prediction Service
